Regional Weather Roundup
Issued by NWS

Home | Current Version | Previous Version | Text Only | Print | Product List | Glossary Off
Versions: 1 2 3 4 5 6 7 8 9 10 11 12 13 14 15 16 17 18 19 20 21 22 23 24 25 26 27 28 29 30 31 32 33 34 35 36 37 38 39 40 41 42 43 44 45 46 47 48 49 50

000
ASUS43 KIND 271959
RWRIN

WEATHER ROUNDUP FOR INDIANA
NATIONAL WEATHER SERVICE INDIANAPOLIS IN
400 PM EDT MON JUL 27 2015

NOTE: "FAIR" INDICATES FEW OR NO CLOUDS BELOW 12,000 FEET WITH NO
SIGNIFICANT WEATHER AND/OR OBSTRUCTIONS TO VISIBILITY.

* - STATION DOES NOT REPORT WEATHER SUCH AS PRECIPITATION OR FOG.

+ - STATION NOT QUALITY CONTROLLED BY THE NATIONAL WEATHER SERVICE.
    USE DATA WITH CAUTION...ESPECIALLY DEWPOINT AND RELATIVE
    HUMIDITY OBSERVATIONS.

INZ001>003-010>013-019-020-272100-
NORTHWEST INDIANA

CITY           SKY/WX    TMP DP  RH WIND       PRES   REMARKS
GARY /AIRPORT/ MOSUNNY   84  50  30 NE12      30.01R
MONTICELLO +   MOSUNNY   84  71  65 E7        29.98S
RENSSELAER +   MOSUNNY   86  70  58 E9        29.99S

$$

LMZ046-743>745-272100-
SOUTHERN LAKE MICHIGAN

STATION/POSITION TIME  TEMP    WIND        PRES    WAVE
                       AIR SEA DIR/SP/G            HT
                 (UTC) (F)     (DEG/KT/KT) (MB)    (FT)
BURNS HARBOR     1900   76      30/ 12/ 13 1016.3S
MICHIGAN CITY    1900   84      80/  9/ 13   N/A
5NW MICH CITY    1900   76 76   30/  8/ 10   N/A     1

$$

INZ004-005-014>016-021>024-272100-
NORTH CENTRAL INDIANA

CITY           SKY/WX    TMP DP  RH WIND       PRES   REMARKS
ELKHART        PTSUNNY   86  59  39 E8        30.03R
GOSHEN         MOSUNNY   85  64  49 E8        30.02S
SOUTH BEND     MOSUNNY   87  61  41 E9        30.02S

$$

INZ006>009-017-018-025>027-272100-
NORTHEAST INDIANA

CITY           SKY/WX    TMP DP  RH WIND       PRES   REMARKS
ANGOLA *+      SUNNY     84  81  89 E8        30.03S HX  98
FORT WAYNE     PTSUNNY   85  61  44 E9        30.01F

$$

INZ028-029-035-036-043>045-051>053-272100-
WEST CENTRAL INDIANA

CITY           SKY/WX    TMP DP  RH WIND       PRES   REMARKS
CRAWFORDSVL +  MOSUNNY   83  67  58 CALM      29.98
GREENCASTLE +  MOSUNNY   82  68  61 CALM      29.98S
LAFAYETTE      PTSUNNY   84  73  69 VRB5      29.97S
TERRE HAUTE    MOSUNNY   89  75  63 VRB5      29.95F HX  99

$$

INZ030>032-037>040-046>048-054>057-064-065-272100-
CENTRAL INDIANA

CITY           SKY/WX    TMP DP  RH WIND       PRES   REMARKS
COLUMBUS       MOSUNNY   86  68  54 CALM      29.96F
INDIANAPOLIS   PTSUNNY   85  71  63 SW3       29.97S
-EAGLE CREEK   CLOUDY    85  71  63 N5        29.97S
KOKOMO *+      MOSUNNY   82  72  69 E8        29.99F
MT COMFORT *+  MOSUNNY   82  77  83 E3        29.99S
SHELBYVILLE    CLOUDY    86  73  65 SE3       29.97S

$$

INZ033-034-041-042-049-050-058-059-272100-
EAST CENTRAL INDIANA

CITY           SKY/WX    TMP DP  RH WIND       PRES   REMARKS
MUNCIE         CLOUDY    80  71  74 E7        30.00S

$$

INZ060-061-067>069-081>083-085>088-272100-
SOUTHWEST INDIANA

CITY           SKY/WX    TMP DP  RH WIND       PRES   REMARKS
EVANSVILLE     PTSUNNY   89  75  63 CALM      29.95S HX  99
HUNTINGBURG *+ PTSUNNY   88  75  66 S5        29.95F HX  97

$$

INZ062-063-066-070>080-084-089>092-272100-
SOUTH CENTRAL AND SOUTHEAST INDIANA

CITY           SKY/WX    TMP DP  RH WIND       PRES   REMARKS
BLOOMINGTON    PTSUNNY   86  74  67 SE5       29.96F
MADISON *+     MOSUNNY   90  68  48 CALM      29.99S

$$




USA.gov is the U.S. government's official web portal to all federal, state and local government web resources and services.